Погода Ростов Великий

Погода Ростов Великий : погода сейчас, прогноз погоды и архив. Всё, что Вы хотите узнать о погоде Ростов Великий!

Хотите узнать прогноз погоды Ростов Великий? Тогда Вам сюда: Погода Ростов Великий

Поиск расширенной информации на нашем сайте:

Полезная информация:

Другие новости

Новости СМИ2

Главная страница сайта

Новости сайта

03.07.2017

Напоминаем, что на нашем специализированном сайте Метеоцентр.Азия вы можете получить высокодетализированные автоматические прогнозы погоды по пунктам России, СНГ и мира в авиационном формате (включающие направление и скорость ветра, видимость, явления погоды, количество и форму облачности, нижнюю и верхнюю границу облачности).

Рекомендуем:

Погода Ростов Великий - сегодня

Время (UTC), дата Ветер
(°,м/с) 
Видим.   Явления Облачность Т
(°С)
Тd
(°С)
f(%) Тe
(°С)
Pmin
(гПа)
dP
(гПа)
Po
(мм)
O2
(г/м3)
Тmin Tmax R s Состояние
почвы
09 15.09.19 280 (З) 10 км    10/10 600 м кучево-дожд. 
[Cb cap]
+8.7 +4.6 75 +8  1013.7  -0.2  751  293           
12 15.09.19 270 (З) 10 км    10/10 600 м кучево-дожд. 
[Cb cap]
+9.2 +4.5 72 +9  1012.5  -1.2  750  292           
15 15.09.19 220 (ЮЗ) 10 км    8/4 600 м средняя, верхняя 
[Sc|Ac trans|Ci fib]
+8.5 +4.7 77 +9  1009.6  -2.9  748  292    +9.5       
18 15.09.19 220 (ЮЗ) 10 км  в посл. час ливневой дождь  10/10 600 м кучево-дожд. 
[Cb cap]
+7.6 +6 90 +9  1006.2  -2.9  746  291           
21 15.09.19 200 (Ю) 10 км  слаб. ливневой дождь  10/10 600 м кучево-дожд. 
[Cb cap]
+7.8 +6.8 93 +8  1000.9  -5.1  742  289           
00 16.09.19 230 (ЮЗ) 10 км  слаб. ливневой дождь  10/10 600 м кучево-дожд. 
[Cb cap]
+8.2 +7.3 94 +8  997.2  -3.6  739  288           
03 16.09.19 260 (З) 10 км  {ливн. осадки}  10/10 600 м кучево-дожд. 
[Cb cap]
+9.2 +8.1 93 +9  995.3  -1.8  737  286  +7.6      мокрая 
06 16.09.19 250 (З) 10 км  {ливн. осадки}  10/10 600 м кучево-дожд. 
[Cb cap]
+10.6 +9 90 +11  994.2  -1  737  284           
09 16.09.19 260 (З) 10 км    10/10 600 м кучево-дожд. 
[Cb cap]
+12.4 +8 74 +12  993.3  -0.8  736  282           
12 16.09.19 280 (З) 3{10}  4000 м  слаб. ливневой дождь  6/6 600 м кучево-дожд. 
[Cb cap]
+12.4 +9 80 +12  993.3  736  282           
15 16.09.19 250 (З) 10 км  в посл. час ливневой дождь  6/4 600 м средняя 
[Sc|Ac As]
+10.8 +8.6 86 +10  993.8  0.4  736  284    +14     
18 16.09.19 240 (ЮЗ) 10 км  в посл. час ливневой дождь  8/8 600 м кучево-дожд. 
[Cb cap]
+9.3 +8.2 93 +10  993.7  -0.2  736  285           
21 16.09.19 250 (З) 10 км  {ливн. осадки}  8/8 600 м кучево-дожд. 
[Cb cap]
+8.9 +7.7 92 +8  992.9  -0.8  736  286           
00 17.09.19 270 (З) 3{10}  10 км  {ливн. осадки}  10/10 600 м кучево-дожд. 
[Cb cap]
+9.4 +6.9 84 +9  992.6  -0.2  736  285           
03 17.09.19 270 (З) 10 км    10/10 600 м кучево-дожд. 
[Cb cap]
+9.2 +6.7 84 +8  992.4  -0.3  735  285  +8.2      влажная 
06 17.09.19 290 (З) 4000 м  слаб. ливневой дождь  10/10 600 м кучево-дожд. 
[Cb cap]
+9.7 +7.8 88 +9  992.8  -0.3  736  285           
09 17.09.19 270 (З) 10 км  в посл. час ливневой дождь  8/6 600 м кучево-дожд., средняя 
[Cb cap|Ac trans]
+9.4 +7.3 87 +9  993.4  0.6  736  285           
12 17.09.19 280 (З) 10 км  в посл. час ливневой дождь  8/5 600 м кучево-дожд., средняя, верхняя 
[Cb cap|Ac trans|Ci fib]
+10.3 +8.7 90 +10  994.1  0.8  737  284           
15 17.09.19 260 (З) 10 км    3/3 600 м 
[Sc]
+10 +7 82 +10  994.9  0.7  737  285    +12.2     
18 17.09.19 260 (З) 10 км    3/3 600 м 
[Sc]
+7.6 +6.5 93 +8  995.9  0.9  738  288           
21 17.09.19 280 (З) 10 км    3/0 средняя 
[Ac trans]
+6.7 +5.7 93 +8  996.2  0.3  738  289           
00 18.09.19 270 (З) 10 км    6/6 600 м 
[Sc]
+5.4 +4.8 96 +6  996.6  0.3  738  291           
03 18.09.19 260 (З) 10 км    9/9 600 м 
[Sc]
+6.2 +5.3 94 +7  997  0.4  739  290  +5.3        мокрая 
06 18.09.19 260 (З) 10 км    10/10 600 м кучево-дожд. 
[Cb cap]
+8.2 +6.4 88 +8  997.3  0.4  739  288           
09 18.09.19 260 (З) 10 км    5/0 средняя 
[Sc|Ac und]
+11.6 +6.2 69 +11  997.5  0.4  739  285           
Время (UTC), дата Ветер
(°,м/с) 
Видим.   Явления Облачность Т
(°С)
Тd
(°С)
f(%) Тe
(°С)
Pmin
(гПа)
dP
(гПа)
Po
(мм)
O2
(г/м3)
Тmin Tmax R s Состояние
почвы

Для получения пояснительной информации подведите курсор к названию столбца.

ПОГОДА Ростов Великий - архив

Всё, что Вы хотите узнать о погоде Ростов Великий - удобно и подробно!

Выберите нужную дату (начиная с 1 января 2018* года) и нажмите кнопку "Найти".
Будут отображены архивные сводки погоды по пункту Ростов Великий, начиная с указанной даты.


Отображать данные в формате CSV (для использования в таблицах Excel)


Внимание! Наш архив погоды предназначен исключительно для личного некоммерческого использования в познавательных целях. Если Вам необходимы официальные справки о состоянии погоды (для производственных, юридических, коммерческих и т.п. целей), обращайтесь в органы Росгидромета.

*Примечание: данная дата относится к архиву по метеостанциям СССР (Россия, СНГ, Балтия).
Архив по метеостанциям Зарубежной Европы и Азии (кроме Китая) хранится 10 дней, по другим регионам земного шара (Китай, Африка, Америка, Австралия, Океания) - 1 день.

Ростов Великий - район местоположения метеостанции


Название, широта, долгота, высота метеостанции:
Ростов Великий 57.2°ш. 39.4°д. 101 м над ур. моря [Российская Федерация]

Дополнительная информация

В oтличие oт бoльшинства пoгoдных сайтoв мы публикуем пoдрoбную метеoинфoрмацию в детальнoм прoфессиoнальнoм фoрмате.

Характеристики температуры и влажнoсти вoздуха измеряются на высoте 2 м в тени вдали oт зданий и деревьев.
Скoрoсть ветра измеряется на высoте 10 м (на урoвне рoста челoвека скoрoсть ветра ниже в 1.5-2 раза). Если метеoстанция нахoдится в гoрoде или в лесу, тo скoрoсть ветра занижена на 2-4 м/с пo сравнению с oткрытым местoм. Скoрoсть ветра над акватoриями крупных рек и oзёр, а также на вершинах хoлмoв на 2-5 м/с выше, чем в oбычных услoвиях.
Атмoсфернoе давление в разных тoчках местнoсти мoжет значительнo oтличаться oт давления на метеoстанции, в зависимoсти oт услoвий рельефа (при пoдъёме на 10 м давление пoнижается примернo на 1 мм рт.ст.).